Regional Weather Roundup
Issued by NWS

Home | Current Version | Previous Version | Graphics & Text | Print | Product List | Glossary On
Versions: 1 2 3 4 5 6 7 8 9 10 11 12 13 14 15 16 17 18 19 20 21 22 23 24 25 26 27 28 29 30 31 32 33 34 35 36 37 38 39 40 41 42 43 44 45 46 47 48 49 50
000
ASUS43 KIND 202309
RWRIN

WEATHER ROUNDUP FOR INDIANA
NATIONAL WEATHER SERVICE INDIANAPOLIS IN
700 PM EDT WED SEP 20 2017

NOTE: "FAIR" INDICATES FEW OR NO CLOUDS BELOW 12,000 FEET WITH NO
SIGNIFICANT WEATHER AND/OR OBSTRUCTIONS TO VISIBILITY.

* - STATION DOES NOT REPORT WEATHER SUCH AS PRECIPITATION OR FOG.

+ - STATION NOT QUALITY CONTROLLED BY THE NATIONAL WEATHER SERVICE.
    USE DATA WITH CAUTION...ESPECIALLY DEWPOINT AND RELATIVE
    HUMIDITY OBSERVATIONS.

INZ001>003-010>013-019-020-210000-
NORTHWEST INDIANA

CITY           SKY/WX    TMP DP  RH WIND       PRES   REMARKS
GARY /AIRPORT/ CLEAR     90  64  43 S8G20     29.88S
KNOX *+        CLEAR     86  68  54 S10       29.91S
LA PORTE +     CLEAR     85  69  58 S7        29.92R
MICHIGAN CITY+ CLEAR     86  68  54 S5        29.91R
MONTICELLO +   CLEAR     85  68  57 S5        29.92S
RENSSELAER +   CLEAR     86  57  37 S9        29.91S
VALPARAISO     CLEAR     88  69  53 S8        29.91R

$$

LMZ046-743>745-210000-
SOUTHERN LAKE MICHIGAN

STATION/POSITION TIME  TEMP    WIND        PRES    WAVE
                       AIR SEA DIR/SP/G            HT
                 (UTC) (F)     (DEG/KT/KT) (MB)    (FT)
BURNS HARBOR     2240   88     190/ 13/ 18 1012.2R
MICHIGAN CITY    2240   87     170/ 11/ 14   N/A
5NW MICH CITY    2300   80 69  180/  8/ 14   N/A     1

$$

INZ004-005-014>016-021>024-210000-
NORTH CENTRAL INDIANA

CITY           SKY/WX    TMP DP  RH WIND       PRES   REMARKS
ELKHART        CLEAR     84  68  58 S9        29.93S
GOSHEN         CLEAR     84  67  56 S8        29.94S
LOGANSPORT +   CLEAR     82  66  57 S5        29.95S
PERU/GRISSOM   CLEAR     85  70  60 S6        29.95R
ROCHESTER +    CLEAR     88  70  55 SE5       29.94F
SOUTH BEND     CLEAR     84  68  58 S10       29.92F
WARSAW +       CLEAR     82  70  65 S3        29.95S

$$

INZ006>009-017-018-025>027-210000-
NORTHEAST INDIANA

CITY           SKY/WX    TMP DP  RH WIND       PRES   REMARKS
AUBURN +       CLEAR     79  70  73 CALM      29.97S
FORT WAYNE     CLEAR     81  69  67 S6        29.97S
HUNTINGTON +   CLEAR     83  67  57 S3        29.96S
KENDALLVILLE + CLEAR     81  69  68 S3        29.97F

$$

INZ028-029-035-036-043>045-051>053-210000-
WEST CENTRAL INDIANA

CITY           SKY/WX    TMP DP  RH WIND       PRES   REMARKS
CRAWFORDSVL +  CLEAR     84  66  54 S7        29.95S
GREENCASTLE +  CLEAR     84  66  54 S5        29.97R
LAFAYETTE      CLEAR     86  68  54 S7        29.92S
TERRE HAUTE    CLEAR     88  68  51 S7        29.94S

$$

INZ030>032-037>040-046>048-054>057-064-065-210000-
CENTRAL INDIANA

CITY           SKY/WX    TMP DP  RH WIND       PRES   REMARKS
CP ATTERBURY + CLEAR     82  72  69 S3        29.98S
COLUMBUS       PTCLDY    84  68  58 S6        29.98S
FISHERS *+     CLEAR     82  72  69 S3        29.97S
FRANKFORT +    CLOUDY    87  70  56 S3        29.97S
GREENWOOD *+   CLEAR     89  72  55 S7        29.98S HX  96
INDIANAPOLIS   PTCLDY    86  69  56 S9        29.96S
-EAGLE CREEK   CLEAR     87  66  49 S6        29.96S
KOKOMO +       CLEAR     82  71  69 S7        29.97S
MT COMFORT *+    N/A    N/A N/A N/A MISG        N/A
SHELBYVILLE    PTCLDY    86  68  54 S5        29.97R
ZIONSVILLE +   CLEAR     82  69  64 S7        29.97S

$$

INZ033-034-041-042-049-050-058-059-210000-
EAST CENTRAL INDIANA

CITY           SKY/WX    TMP DP  RH WIND       PRES   REMARKS
MUNCIE         CLEAR     86  67  52 S6        29.98S
RICHMOND +     CLEAR     79  68  69 S5        30.02S

$$

INZ060-061-067>069-081>083-085>088-210000-
SOUTHWEST INDIANA

CITY           SKY/WX    TMP DP  RH WIND       PRES   REMARKS
EVANSVILLE     PTCLDY    87  70  56 S5        29.95R
HUNTINGBURG +  CLEAR     86  72  62 S6        29.97R
WASHINGTON +   CLEAR     88  65  47 S5        29.95S

$$

INZ062-063-066-070>080-084-089>092-210000-
SOUTH CENTRAL AND SOUTHEAST INDIANA

CITY           SKY/WX    TMP DP  RH WIND       PRES   REMARKS
BEDFORD +      CLEAR     84  68  58 CALM      29.97S
BLOOMINGTON    CLEAR     86  68  54 S6        29.97S
MADISON *+     CLEAR     82  70  65 CALM      30.02S
NORTH VERNON + CLEAR     81  72  74 SE5       29.99F
SEYMOUR +      PTCLDY    84  70  61 SE3       29.98R

$$





USA.gov is the U.S. government's official web portal to all federal, state and local government web resources and services.